Weather History for KFOA - October, 2012

Change the Weather History Date:

Monday, October 22, 2012

  Actual Average (KEVV) Record (KEVV)
Temperature  
Mean Temperature 72 °F 56 °F  
Max Temperature 79 °F 68 °F 90 °F (1963)
Min Temperature 64 °F 44 °F 21 °F (1952)
Degree Days  
Heating Degree Days 0 10  
Month to date heating degree days 157  
Since 1 July heating degree days 204  
Cooling Degree Days 6 0  
Month to date cooling degree days 28  
Year to date cooling degree days 1394  
Growing Degree Days 22 (Base 50)    
Moisture  
Dew Point 56 °F    
Average Humidity 60    
Maximum Humidity 78    
Minimum Humidity 40    
Precipitation  
Precipitation 0.00 in 0.11 in 1.45 in (1933)
Month to date precipitation 2.26  
Year to date precipitation 36.23  
Snow  
Snow 0.00 in 0.00 in 0.00 in (2002)
Month to date snowfall 0.1  
Since 1 July snowfall 0.1  
Since 1 September snowfall 0.1  
Snow Depth -    
Sea Level Pressure  
Sea Level Pressure 30.00 in    
Wind  
Wind Speed 10 mph (South)    
Max Wind Speed 18 mph    
Max Gust Speed 24 mph    
Visibility 10 miles    
Events Rain , Thunderstorm    
T = Trace of Precipitation, MM = Missing Value Source: NWS Daily Summary

Daily Weather History Graph

Daily Weather History Graph

Search for Another Location

Airport or City:

Trip Planner

Search our weather history database for the weather conditions in past years. The results will help you decide how hot, cold, wet, or windy it might be!

Date:

Astronomy

Oct. 22, 2012 Rise Set
Actual Time 7:10 AM CDT 6:05 PM CDT
Civil Twilight 6:43 AM CDT 6:32 PM CDT
Nautical Twilight 6:12 AM CDT 7:03 PM CDT
Astronomical Twilight 5:41 AM CDT 7:33 PM CDT
Moon 2:08 PM CDT (10/22) 12:01 AM CDT (10/22)
Length of Visible Light 11h 48m
Length of Day
10h 54m
First Quarter, 56% of the Moon is Illuminated
Oct 22
First Quarter
Oct 29
Full
Nov 6
Last Quarter
Nov 13
New
Nov 20
First Quarter

Hourly Weather History & Observations

Time (CDT) Temp. Dew Point Humidity Pressure Visibility Wind Dir Wind Speed Gust Speed Precip Events Conditions
12:15 AM 68.4 °F 60.3 °F 75% 30.01 in 10.0 mi South 6.9 mph - N/A   Mostly Cloudy
12:35 AM 68.0 °F 60.8 °F 78% 30.01 in 10.0 mi South 5.8 mph - N/A   Overcast
12:55 AM 68.0 °F 59.7 °F 75% 30.01 in 10.0 mi South 5.8 mph - N/A   Overcast
1:15 AM 69.8 °F 59.0 °F 68% 30.01 in 10.0 mi South 5.8 mph - N/A   Overcast
1:35 AM 68.9 °F 58.1 °F 68% 30.02 in 10.0 mi South 5.8 mph - N/A   Overcast
1:55 AM 68.9 °F 57.2 °F 66% 30.02 in 10.0 mi South 5.8 mph - N/A   Overcast
2:15 AM 68.9 °F 56.8 °F 65% 30.02 in 10.0 mi South 6.9 mph - N/A   Overcast
2:35 AM 68.0 °F 57.2 °F 68% 30.03 in 10.0 mi South 5.8 mph - N/A   Mostly Cloudy
2:55 AM 68.0 °F 57.2 °F 68% 30.03 in 10.0 mi South 5.8 mph - N/A   Mostly Cloudy
3:15 AM 66.9 °F 56.3 °F 69% 30.02 in 10.0 mi SSE 4.6 mph - N/A   Scattered Clouds
3:35 AM 66.2 °F 55.4 °F 68% 30.02 in 10.0 mi South 6.9 mph - N/A   Clear
3:55 AM 68.0 °F 55.4 °F 64% 30.02 in 10.0 mi South 8.1 mph - N/A   Clear
4:15 AM 67.1 °F 54.7 °F 64% 30.02 in 10.0 mi South 10.4 mph - N/A   Clear
4:35 AM 67.1 °F 54.5 °F 64% 30.01 in 10.0 mi South 11.5 mph - N/A   Scattered Clouds
4:55 AM 67.1 °F 54.5 °F 64% 30.01 in 10.0 mi South 11.5 mph - N/A   Clear
5:15 AM 66.4 °F 54.0 °F 64% 30.01 in 10.0 mi South 11.5 mph - N/A   Clear
5:35 AM 65.7 °F 53.6 °F 65% 30.02 in 10.0 mi South 11.5 mph - N/A   Clear
5:55 AM 65.3 °F 53.8 °F 66% 30.02 in 10.0 mi South 10.4 mph - N/A   Clear
6:15 AM 65.1 °F 53.8 °F 67% 30.02 in 10.0 mi South 10.4 mph - N/A   Clear
6:35 AM 65.1 °F 54.0 °F 67% 30.02 in 10.0 mi South 9.2 mph - N/A   Clear
6:55 AM 64.9 °F 54.1 °F 68% 30.02 in 10.0 mi South 10.4 mph - N/A   Scattered Clouds
7:15 AM 64.2 °F 53.8 °F 69% 30.02 in 10.0 mi South 10.4 mph - N/A   Scattered Clouds
7:35 AM 64.4 °F 53.6 °F 68% 30.02 in 10.0 mi South 9.2 mph - N/A   Scattered Clouds
7:55 AM 64.4 °F 54.1 °F 69% 30.03 in 10.0 mi South 10.4 mph - N/A   Scattered Clouds
8:15 AM 65.3 °F 54.5 °F 68% 30.03 in 10.0 mi South 11.5 mph - N/A   Overcast
8:35 AM 66.2 °F 54.7 °F 66% 30.03 in 10.0 mi South 11.5 mph 16.1 mph N/A   Scattered Clouds
8:55 AM 67.1 °F 55.0 °F 65% 30.03 in 10.0 mi South 11.5 mph - N/A   Clear
9:15 AM 68.7 °F 55.4 °F 62% 30.02 in 10.0 mi South 13.8 mph - N/A   Clear
9:35 AM 69.4 °F 55.4 °F 61% 30.02 in 10.0 mi South 16.1 mph 20.7 mph N/A   Clear
9:55 AM 70.7 °F 56.3 °F 60% 30.01 in 10.0 mi South 18.4 mph 23.0 mph N/A   Clear
10:15 AM 71.8 °F 57.2 °F 60% 30.01 in 10.0 mi South 16.1 mph 19.6 mph N/A   Clear
10:35 AM 73.9 °F 58.5 °F 58% 30.01 in 10.0 mi South 16.1 mph 21.9 mph N/A   Clear
10:55 AM 73.0 °F 58.1 °F 59% 30.02 in 10.0 mi South 17.3 mph - N/A   Clear
11:15 AM 74.8 °F 59.0 °F 58% 30.00 in 10.0 mi South 13.8 mph 21.9 mph N/A   Unknown
11:35 AM 74.7 °F 59.5 °F 59% 30.01 in 10.0 mi South 15.0 mph - N/A   Clear
11:55 AM 75.9 °F 60.1 °F 58% 30.00 in 10.0 mi South 17.3 mph 24.2 mph N/A   Unknown
12:15 PM 77.5 °F 61.2 °F 57% 30.00 in 10.0 mi South 12.7 mph 23.0 mph N/A   Clear
12:35 PM 76.5 °F 61.0 °F 59% 30.01 in 10.0 mi SSW 15.0 mph 21.9 mph N/A Thunderstorm Clear
12:55 PM 75.7 °F 61.2 °F 60% 30.02 in 10.0 mi SSW 12.7 mph 19.6 mph N/A   Clear
1:15 PM 75.6 °F 62.4 °F 64% 30.00 in 10.0 mi South 8.1 mph - N/A Thunderstorm Scattered Clouds
1:35 PM 75.7 °F 63.0 °F 64% 30.01 in 10.0 mi South 8.1 mph - N/A Thunderstorm Scattered Clouds
1:55 PM 76.1 °F 62.8 °F 63% 30.01 in 10.0 mi South 9.2 mph - N/A Thunderstorm Thunderstorm
2:15 PM 77.0 °F 63.0 °F 62% 29.98 in 10.0 mi SSE 12.7 mph 17.3 mph N/A Thunderstorm Unknown
2:35 PM 79.2 °F 62.6 °F 57% 29.98 in 10.0 mi South 18.4 mph 23.0 mph N/A Thunderstorm Clear
2:55 PM 78.4 °F 62.1 °F 57% 30.00 in 10.0 mi South 16.1 mph 20.7 mph N/A Thunderstorm Clear
3:15 PM 77.7 °F 61.9 °F 58% 29.99 in 10.0 mi South 10.4 mph - N/A   Scattered Clouds
3:35 PM 77.5 °F 62.4 °F 59% 29.99 in 10.0 mi South 8.1 mph - N/A   Light Drizzle
3:55 PM 77.5 °F 62.1 °F 59% 30.00 in 10.0 mi South 13.8 mph - N/A Thunderstorm Scattered Clouds
4:15 PM 76.6 °F 62.2 °F 61% 29.99 in 10.0 mi South 15.0 mph 23.0 mph N/A Rain , Thunderstorm Light Thunderstorms and Rain
4:35 PM 75.9 °F 61.5 °F 61% 29.96 in 10.0 mi South 17.3 mph 24.2 mph N/A Rain , Thunderstorm Light Thunderstorms and Rain
4:55 PM 75.0 °F 61.5 °F 63% 29.99 in 10.0 mi South 16.1 mph 19.6 mph N/A Rain , Thunderstorm Light Thunderstorms and Rain
5:15 PM 75.7 °F 59.5 °F 57% 29.97 in 10.0 mi South 16.1 mph - N/A Thunderstorm Scattered Clouds
5:35 PM 75.9 °F 56.5 °F 51% 29.96 in 10.0 mi South 18.4 mph 24.2 mph N/A   Clear
5:55 PM 74.8 °F 55.9 °F 52% 29.96 in 10.0 mi South 15.0 mph - N/A   Clear
6:15 PM 73.8 °F 56.1 °F 54% 29.96 in 10.0 mi South 13.8 mph - N/A   Clear
6:35 PM 73.9 °F 53.4 °F 49% 29.97 in 10.0 mi South 15.0 mph - N/A   Clear
6:55 PM 73.9 °F 51.3 °F 45% 29.97 in 10.0 mi South 17.3 mph 21.9 mph N/A   Clear
7:15 PM 73.9 °F 48.0 °F 40% 29.97 in 10.0 mi SSW 11.5 mph 18.4 mph N/A   Clear
7:35 PM 72.5 °F 48.0 °F 42% 29.99 in 10.0 mi SSW 9.2 mph - N/A   Clear
7:55 PM 71.4 °F 48.0 °F 43% 29.99 in 10.0 mi SSW 6.9 mph - N/A   Clear
8:15 PM 69.8 °F 48.6 °F 47% 29.99 in 10.0 mi South 9.2 mph - N/A   Clear
8:35 PM 71.6 °F 48.2 °F 43% 29.99 in 10.0 mi South 12.7 mph - N/A   Clear
8:55 PM 71.1 °F 48.2 °F 44% 29.99 in 10.0 mi South 11.5 mph - N/A   Clear
9:15 PM 70.9 °F 48.4 °F 45% 30.00 in 10.0 mi South 10.4 mph 17.3 mph N/A   Clear
9:35 PM 69.8 °F 48.9 °F 47% 30.00 in 10.0 mi South 10.4 mph - N/A   Clear
9:55 PM 68.7 °F 50.0 °F 51% 29.99 in 10.0 mi South 8.1 mph - N/A   Clear
10:15 PM 67.5 °F 50.0 °F 53% 29.99 in 10.0 mi South 8.1 mph - N/A   Clear
10:35 PM 68.0 °F 50.2 °F 53% 29.99 in 10.0 mi South 8.1 mph - N/A   Clear
10:55 PM 68.9 °F 50.4 °F 52% 29.99 in 10.0 mi South 9.2 mph - N/A   Clear
11:15 PM 70.7 °F 50.5 °F 49% 29.99 in 10.0 mi SSW 10.4 mph - N/A   Clear
11:35 PM 68.9 °F 50.7 °F 52% 29.98 in 10.0 mi South 9.2 mph - N/A   Clear
11:55 PM 68.9 °F 51.3 °F 53% 29.98 in 10.0 mi SSW 10.4 mph - N/A   Clear